Weather History for New Bern, NC

Change the Weather History Date:

Tuesday, May 21, 2013

  Actual Average Record
Temperature  
Mean Temperature 77 °F 71 °F  
Max Temperature 84 °F 81 °F 96 °F (1962)
Min Temperature 69 °F 60 °F 43 °F (1968)
Degree Days  
Heating Degree Days 0 1  
Month to date heating degree days 19 30  
Since 1 July heating degree days 2580 2697  
Cooling Degree Days 12 6  
Month to date cooling degree days 113 96  
Year to date cooling degree days 186 166  
Growing Degree Days 26 (Base 50)    
Moisture  
Dew Point 68 °F    
Average Humidity 76    
Maximum Humidity 93    
Minimum Humidity 58    
Precipitation  
Precipitation 0.06 in 0.14 in 1.73 in (1971)
Month to date precipitation 1.40 2.70  
Year to date precipitation 10.97 17.94  
Snow  
Snow 0.00 in - - ()
Month to date snowfall 0.0  
Since 1 July snowfall T  
Snow Depth 0.00 in    
Sea Level Pressure  
Sea Level Pressure 30.06 in    
Wind  
Wind Speed 8 mph (South)    
Max Wind Speed 18 mph    
Max Gust Speed 28 mph    
Visibility 10 miles    
Events Rain    
T = Trace of Precipitation, MM = Missing Value Source: NWS Daily Summary

Daily Weather History Graph

Daily Weather History Graph

Search for Another Location

Airport:

Trip Planner

Search our weather history database for the weather conditions in past years. The results will help you decide how hot, cold, wet, or windy it might be!

Date:

Astronomy

May. 21, 2013 Rise Set
Actual Time 6:00 AM EDT 8:09 PM EDT
Civil Twilight 5:31 AM EDT 8:38 PM EDT
Nautical Twilight 4:56 AM EDT 9:13 PM EDT
Astronomical Twilight 4:19 AM EDT 9:51 PM EDT
Moon 4:28 PM EDT (5/21) 3:17 AM EDT (5/21)
Length of Visible Light 15h 06m
Length of Day
14h 09m
Waxing Gibbous, 84% of the Moon is Illuminated
May 21
Waxing Gibbous
May 25
Full
May 31
Last Quarter
Jun 8
New
Jun 16
First Quarter

Hourly Weather History & Observations

Time (EDT) Temp. Heat Index Dew Point Humidity Pressure Visibility Wind Dir Wind Speed Gust Speed Precip Events Conditions
12:54 AM 70.0 °F - 66.9 °F 90% 30.09 in 10.0 mi Calm Calm - N/A   Mostly Cloudy
1:54 AM 70.0 °F - 66.9 °F 90% 30.06 in 10.0 mi South 4.6 mph - N/A   Scattered Clouds
2:54 AM 69.1 °F - 66.0 °F 90% 30.05 in 10.0 mi SSE 4.6 mph - N/A   Scattered Clouds
3:54 AM 70.0 °F - 66.9 °F 90% 30.06 in 10.0 mi South 4.6 mph - N/A   Overcast
4:54 AM 71.1 °F - 68.0 °F 90% 30.06 in 10.0 mi SSW 4.6 mph - N/A   Overcast
5:54 AM 71.1 °F - 68.0 °F 90% 30.06 in 10.0 mi South 6.9 mph - N/A   Scattered Clouds
6:54 AM 72.0 °F - 69.1 °F 91% 30.09 in 10.0 mi South 3.5 mph - N/A   Clear
7:54 AM 75.0 °F - 70.0 °F 84% 30.09 in 10.0 mi SSW 6.9 mph - N/A   Clear
8:54 AM 79.0 °F - 69.1 °F 72% 30.10 in 10.0 mi SW 6.9 mph 16.1 mph N/A   Clear
9:30 AM 80.6 °F 83.2 °F 68.0 °F 65% 30.09 in 10.0 mi SW 10.4 mph - N/A   Mostly Cloudy
9:54 AM 81.0 °F 84.1 °F 69.1 °F 67% 30.09 in 10.0 mi SSW 9.2 mph - N/A   Mostly Cloudy
10:54 AM 77.0 °F - 66.9 °F 71% 30.09 in 10.0 mi SSW 11.5 mph 20.7 mph 0.00 in Rain Light Rain
11:54 AM 77.0 °F - 71.1 °F 82% 30.08 in 10.0 mi South 3.5 mph - 0.00 in   Partly Cloudy
12:54 PM 82.0 °F 86.3 °F 71.1 °F 69% 30.07 in 10.0 mi South 9.2 mph - 0.00 in   Mostly Cloudy
1:54 PM 78.1 °F - 71.1 °F 79% 30.06 in 10.0 mi South 5.8 mph - 0.05 in Rain Light Rain
2:54 PM 81.0 °F 83.8 °F 68.0 °F 65% 30.04 in 10.0 mi South 11.5 mph - 0.01 in   Partly Cloudy
3:54 PM 82.9 °F 85.8 °F 68.0 °F 60% 30.01 in 10.0 mi SSW 12.7 mph 19.6 mph N/A   Partly Cloudy
4:54 PM 82.0 °F 84.1 °F 66.0 °F 58% 30.02 in 10.0 mi South 10.4 mph 19.6 mph N/A   Clear
5:54 PM 78.1 °F - 68.0 °F 71% 30.02 in 10.0 mi South 9.2 mph - N/A   Clear
6:54 PM 75.9 °F - 68.0 °F 76% 30.02 in 10.0 mi South 6.9 mph - N/A   Clear
7:54 PM 73.9 °F - 66.9 °F 79% 30.02 in 10.0 mi South 9.2 mph - N/A   Clear
8:54 PM 73.0 °F - 66.9 °F 81% 30.02 in 10.0 mi South 8.1 mph - N/A   Clear
9:54 PM 73.0 °F - 66.9 °F 81% 30.03 in 10.0 mi South 9.2 mph - N/A   Clear
10:54 PM 72.0 °F - 66.9 °F 84% 30.04 in 10.0 mi South 10.4 mph - N/A   Clear
11:54 PM 71.1 °F - 68.0 °F 90% 30.05 in 10.0 mi SSW 5.8 mph - N/A   Clear